User: anonymous   Login
Location: *
(45.1961°N, 1.9694°E)
Time: 22:31:01
(UTC+00:00)
Language:

Cosmos 2322 Rocket - Orbit

View from above orbital plane
View from above orbital plane
View from above satellite
View from above satellite

Ground track
Ground track

The orbit data is extracted from the following two-line orbital elements,

1 23705U 95058B   19289.94369220 -.00000111  00000-0 -32478-4 0  9991
2 23705  71.0233  41.9645 0010290  77.6599 282.5675 14.15125737237686
Epoch (UTC): 16 October 2019 22:38:55
Eccentricity: 0.0010290
inclination: 71.0233°
perigee height: 834 km
apogee height: 849 km
right ascension of ascending node: 41.9645°
argument of perigee: 77.6599°
revolutions per day: 14.15125737
mean anomaly at epoch: 282.5675°
orbit number at epoch: 23768

The dashed part of the orbit path shows where the satellite is in the earth's shadow,  

DLR